User: anonymous   Login
Location: Albany
(35.0000°S, 118.0000°E)
Time: 19:10:27
(UTC-05:00)
Language:

ADEOS Rocket - Orbit

View from above orbital plane
View from above orbital plane
View from above satellite
View from above satellite

Ground track
Ground track

The orbit data is extracted from the following two-line orbital elements,

1 24279U 96046C   14330.82583218 -.00000001  00000-0  42330-4 0  7623
2 24279 098.7268 018.0756 0300919 150.1844 338.4973 13.47003615898583
Epoch (UTC): 26 November 2014 19:49:11
Eccentricity: 0.0300919
inclination: 98.7268°
perigee height: 859 km
apogee height: 1308 km
right ascension of ascending node: 18.0756°
argument of perigee: 150.1844°
revolutions per day: 13.47003615
mean anomaly at epoch: 338.4973°
orbit number at epoch: 89858

The dashed part of the orbit path shows where the satellite is in the earth's shadow,  

DLR